Location: *
(58.7167°N, 26.1833°E)
Time: 18:02:35
(UTC+00:00)

CZ-4C R/B - Pass Details

Date: 25 August 2019
Orbit: 654 x 1348 km, 63.4° (Epoch: 14 October)

Event Time Altitude Azimuth Distance (km) Brightness Sun altitude
Exits shadow 23:28:16 - 265° (W) 3,066 4.9 -19.2°
Reaches altitude 10° 23:29:50 10° 268° (W) 2,490 4.4 -19.1°
Maximum altitude 23:35:37 61° 349° (NNW) 1,095 3.0 -18.9°
Drops below altitude 10° 23:42:35 10° 69° (ENE) 2,987 5.6 -18.6°
Sets 23:45:34 0° 73° (ENE) 4,051 6.3 -18.4°
